Regional Weather Roundup
Issued by NWS

Home | Current Version | Previous Version | Graphics & Text | Print | Product List | Glossary Off
Versions: 1 2 3 4 5 6 7 8 9 10 11 12 13 14 15 16 17 18 19 20 21 22 23 24 25 26 27 28 29 30 31 32 33 34 35 36 37 38 39 40 41 42 43 44 45 46 47 48 49 50

000
ASUS43 KMKX 260921
RWRWI

WISCONSIN REGIONAL WEATHER ROUNDUP
NATIONAL WEATHER SERVICE MILWAUKEE/SULLIVAN WI
400 AM CDT TUE MAY 26 2015

NOTE: "FAIR" INDICATES FEW OR NO CLOUDS BELOW 12,000 FEET WITH NO
SIGNIFICANT WEATHER AND/OR OBSTRUCTIONS TO VISIBILITY.

WIZ001-002-006>008-014>016-023>028-261000-
NORTHWEST WISCONSIN

CITY           SKY/WX    TMP DP  RH WIND       PRES   REMARKS
SUPERIOR ARPT  CLOUDY    47  47 100 CALM      29.81F FOG
ASHLAND        CLOUDY    51  50  96 CALM      29.82S
HAYWARD        MOCLDY    54  52  93 CALM      29.79F
SIREN          FOG       52  51  98 N5        29.80S VSB 1/4
CUMBERLAND     FOG       52  52 100 CALM      29.80S VSB<1/4
RICE LAKE      FOG       55  54  95 CALM      29.81S VSB 1/4
CHETEK         FOG       56  56 100 CALM      29.80S VSB 3/4
LADYSMITH      FOG       57  56  97 CALM      29.81S VSB 1
EAU CLAIRE     MOCLDY    56  56 100 N3        29.76F FOG
MENOMONIE      MOCLDY    59  58  97 CALM      29.79F
NEW RICHMOND   FOG       56  56 100 CALM      29.80S VSB 1/2
OSCEOLA        FOG       51  51 100 CALM      29.82R VSB 1/4
$$

WIZ003>005-009-010-017-018-261000-
NORTH CENTRAL WISCONSIN

CITY           SKY/WX    TMP DP  RH WIND       PRES   REMARKS
MANITOWISH WTR CLOUDY    59  59 100 S3        29.81S
ARBOR VITAE    CLEAR     59  58  96 S3        29.81S
WOODRUFF       CLEAR     59  58  96 S3        29.81S
RHINELANDER    CLEAR     59  58  96 SW8       29.83S
EAGLE RIVER    MOCLDY    59  59 100 SW5       29.82S
LAND O LAKES   MOCLDY    59  58  99 CALM      29.82F FOG
PHILLIPS       PTCLDY    58  58 100 S3        29.80S
TOMAHAWK       PTCLDY    57  56  97 CALM      29.82S FOG
MEDFORD        MOCLDY    60  59  97 SW5       29.81F
MERRILL        PTCLDY    51  51 100 CALM      29.83F FOG
$$

WIZ029-030-035-036-043>047-261000-
CENTRAL WISCONSIN

CITY           SKY/WX    TMP DP  RH WIND       PRES   REMARKS
WAUSAU         PTCLDY    62  60  93 S6        29.81S
MOSINEE        PTCLDY    59  59 100 S7        29.83F
MARSHFIELD     CLOUDY    61  58  90 S7        29.81F
STEVENS POINT  PTCLDY    59  59 100 CALM      29.83F
WAUPACA        PTCLDY    63  62  97 CALM      29.84S
WAUTOMA        PTCLDY    59  59 100 S3        29.85S
WISC RAPIDS    MOCLDY    62  59  90 S3        29.83F
CAMP DOUGLAS   MOCLDY    65  65 100 S5        29.81S
$$

WIZ011>013-019>022-031-037>040-048>050-261000-
NORTHEAST WISCONSIN

CITY           SKY/WX    TMP DP  RH WIND       PRES   REMARKS
ANTIGO         CLEAR     59  59  99 SW6       29.84F
SHAWANO        CLEAR     63  60  92 CALM      29.84F
OCONTO         CLEAR     62  62 100 SW5       29.83S
STURGEON BAY   PTCLDY    64  59  82 S8        29.87S
GREEN BAY      CLEAR     65  60  84 S5        29.85S
MANITOWOC      CLEAR     60  58  92 S9        29.87S
APPLETON       CLEAR     63  59  88 S5        29.86F
CLINTONVILLE   PTCLDY    61  59  94 S3        29.84S
OSHKOSH        CLEAR     61  57  87 S6        29.85S
$$

WIZ032>034-041-042-053>061-261000-
SOUTHWEST WISCONSIN

CITY           SKY/WX    TMP DP  RH WIND       PRES   REMARKS
LA CROSSE      CLOUDY    64  59  83 S8        29.77S
SPARTA         CLOUDY    63  60  91 SE3       29.80F
VIROQUA        CLOUDY    61  60  99 SE8       29.82S
BOSCOBEL       PTCLDY    62  57  83 CALM      29.83F
PRAIRIE DU CHI LGT RAIN  60  57  89 CALM      29.82F
PLATTEVILLE    CLOUDY    64  60  86 S3        29.87F
$$

WIZ056-057-062-063-064-067-068-261000-
SOUTH CENTRAL WISCONSIN

CITY           SKY/WX    TMP DP  RH WIND       PRES   REMARKS
REEDSBURG      CLEAR     65  62  89 SE3       29.84S
BARABOO/DELLS  CLEAR     65  60  81 S9        29.85S
LONE ROCK      PTCLDY    61  58  90 CALM      29.84F
MINERAL POINT  LGT RAIN  64  61  88 S3        29.87F
MADISON        CLEAR     67  61  81 S9        29.86S
MIDDLETON      CLEAR     68  62  81 S12G18    29.86F
WATERTOWN      CLEAR     64  64 100 S5        29.88S
MONROE         PTCLDY    64  63  94 S13       29.87F
JANESVILLE     PTCLDY    68  64  88 S8        29.88F
$$

WIZ051-052-058>065-066-070>072-261000-
SOUTHEAST WISCONSIN

CITY           SKY/WX    TMP DP  RH WIND       PRES   REMARKS
MILWAUKEE      PTCLDY    66  60  81 SW8       29.90F
WAUKESHA       CLEAR     63  59  88 S6        29.92R
MILWAUKEE/TIMM CLEAR     68  59  73 S10G16    29.90S
RACINE         CLEAR     67  60  78 S7        29.92F
BURLINGTON     CLEAR     63  61  92 SW8       29.90F
KENOSHA        CLEAR     67  63  87 S10       29.91S
FOND DU LAC    CLEAR     67  59  75 S12       29.86F
SHEBOYGAN      CLEAR     60  57  89 S5        29.87F
WEST BEND      CLEAR     64  59  82 S6        29.89S
JUNEAU         CLEAR     64  60  88 S9        29.89S
$$

LSZ147-162-261000-
LAKE SUPERIOR

STATION/POSITION TIME  TEMP    WIND        PRES    WAVE
                       AIR SEA DIR/SP/G            HT/PER
                 (UTC) (F)     (DEG/KT/KT) (MB)    (FT/S)
W MID LAKE BUOY  0850   42 36  260/  4/  4   N/A     1/ 5
DEVILS ISLAND    0900   48     270/  2/  2   N/A
PORT WING        0800   45     240/  2/  2   N/A
SAXON HARBOR     0840   47        CALM       N/A
$$

LMZ867-665-643>646-261000-
LAKE MICHIGAN

STATION/POSITION TIME  TEMP    WIND        PRES    WAVE
                       AIR SEA DIR/SP/G            HT/PER
                 (UTC) (F)     (DEG/KT/KT) (MB)    (FT/S)
CHAMBERS ISLAND  0800   61     170/  3/  8   N/A
N MID LAKE BUOY  0850   41 37  190/ 10/ 12   N/A     2/ 5
NORTHPORT PIER   0800   58     150/  2/  4   N/A
SISTER BAY       0817   62     170/  5/  7   N/A
KEWAUNEE LAKESHO 0800   53      CALM  /  3   N/A
SHEBOYGAN LAKESH 0900   61     200/  8/  8   N/A
PORT WASHINGTON  0840   56      CALM  /  3   N/A
ATWATER BUOY     0900   54 46  150/ 10/ 12   N/A
MILWAUKEE LAKESH 0900   68     220/  9/ 13   N/A
S MID LAKE BUOY  0850   46 38  180/ 12/ 14   N/A     1
KENOSHA   LAKESH 0900   60     180/ 12/ 13   N/A
$$

TC  - TEMPERATURE IN CELSIUS
VSB - VISIBILITY IN STATUTE MILES
WCI - WIND CHILL INDEX
HX  - HEAT INDEX



USA.gov is the U.S. government's official web portal to all federal, state and local government web resources and services.